This demonstration page uses our WeatherBlox Daily Observations layout. Learn more.

Left ArrowRight Arrow

Hourly Observations for April 22, 2022

Temp ( °F °C ) Dew Point ( °F °C ) Humidity (%) Winds ( mph kmh ) Pressure ( in mb ) Visibility ( mi km ) Precip ( " mm )
12:35 am 00:35 Mostly Cloudy 67 19.4 63 17.2 87 87 SSE 17 28 30.15 1021 10 16 0.00 0.00
12:52 am 00:52 Mostly Cloudy 67 19.4 63 17.2 87 87 SSE 16 26 30.14 1021 10 16 0.00 0.00
1:03 am 01:03 Partly Cloudy 67 19.4 63 17.2 87 87 SSE 16 26 30.14 1021 10 16 0.00 0.00
1:52 am 01:52 Clear 66 18.9 63 17.2 90 90 SSE 14 22 30.14 1021 10 16 0.00 0.00
2:19 am 02:19 Mostly Cloudy 66 18.9 63 17.2 90 90 SSE 12 19 30.15 1021 10 16 0.00 0.00
2:33 am 02:33 Cloudy 66 18.9 64 17.8 93 93 SSE 14 22 30.14 1021 10 16 0.00 0.00
2:40 am 02:40 Cloudy 66 18.9 63 17.2 90 90 SSE 14 22 30.14 1021 10 16 0.00 0.00
2:52 am 02:52 Mostly Cloudy 66 18.9 63 17.2 90 90 SSE 13 20 30.13 1020 10 16 0.00 0.00
3:52 am 03:52 Clear 65 18.3 63 17.2 93 93 SSE 13 20 30.11 1020 10 16 0.00 0.00
4:06 am 04:06 Mostly Clear 65 18.3 63 17.2 93 93 SSE 14 22 30.11 1020 10 16 0.00 0.00
4:52 am 04:52 Mostly Cloudy 65 18.3 63 17.2 93 93 SSE 10 17 30.13 1020 10 16 0.00 0.00
5:29 am 05:29 Partly Cloudy 64 17.8 63 17.2 96 96 SSE 12 19 30.12 1020 10 16 0.00 0.00
5:52 am 05:52 Clear 64 17.8 63 17.2 96 96 SSE 13 20 30.12 1020 10 16 0.00 0.00
6:52 am 06:52 Cloudy 64 17.8 63 17.2 96 96 SE 15 24 30.14 1021 9 14 0.00 0.00
7:52 am 07:52 Mostly Cloudy 65 18.3 63 17.2 93 93 SSE 15 24 30.15 1021 10 16 0.00 0.00
8:52 am 08:52 Sunny 69 20.6 64 17.8 84 84 SSE 17 28 30.14 1021 10 16 0.00 0.00
9:52 am 09:52 Mostly Sunny 72 22.2 63 17.2 73 73 S 24 39 30.12 1020 10 16 0.00 0.00
10:52 am 10:52 Sunny 76 24.4 61 16.1 60 60 S 23 37 30.11 1020 10 16 0.00 0.00
11:52 am 11:52 Sunny 78 25.6 59 15 52 52 S 21 33 30.10 1019 10 16 0.00 0.00
12:52 pm 12:52 Sunny 79 26.1 58 14.4 49 49 S 22 35 30.08 1019 10 16 0.00 0.00
1:52 pm 13:52 Sunny 80 26.7 58 14.4 47 47 S 23 37 30.05 1018 10 16 0.00 0.00
2:52 pm 14:52 Sunny 81 27.2 57 13.9 44 44 S 24 39 30.03 1017 10 16 0.00 0.00
3:52 pm 15:52 Sunny 82 27.8 58 14.4 44 44 S 22 35 30.00 1016 10 16 0.00 0.00
4:52 pm 16:52 Sunny 81 27.2 56 13.3 42 42 S 23 37 29.98 1015 10 16 0.00 0.00
5:52 pm 17:52 Sunny 80 26.7 54 12.2 41 41 S 22 35 29.96 1015 10 16 0.00 0.00
6:52 pm 18:52 Sunny 79 26.1 51 10.6 38 38 S 24 39 29.95 1014 10 16 0.00 0.00
7:52 pm 19:52 Sunny 76 24.4 54 12.2 47 47 S 15 24 29.94 1014 10 16 0.00 0.00
8:52 pm 20:52 Clear 74 23.3 55 12.8 52 52 SSE 17 28 29.94 1014 10 16 0.00 0.00
9:52 pm 21:52 Clear 72 22.2 55 12.8 55 55 SSE 17 28 29.93 1014 10 16 0.00 0.00
10:52 pm 22:52 Clear 71 21.7 55 12.8 57 57 SSE 18 30 29.93 1013 10 16 0.00 0.00
11:52 pm 23:52 Clear 69 20.6 57 13.9 66 66 SSE 17 28 29.93 1014 10 16 0.00 0.00

Powered by AerisWeather